TimeEDT,TemperatureF,Dew PointF,Humidity,Sea Level PressureIn,VisibilityMPH,Wind Direction,Wind SpeedMPH,Gust SpeedMPH,PrecipitationIn,Events,Conditions,WindDirDegrees,DateUTC
12:53 AM,82.0,75.0,79,29.90,10.0,Calm,Calm,-,N/A,,Partly Cloudy,0,2013-10-08 04:53:00
1:53 AM,82.0,75.0,79,29.90,10.0,SW,3.5,-,N/A,,Clear,220,2013-10-08 05:53:00
2:53 AM,82.0,75.0,79,29.89,10.0,WSW,3.5,-,N/A,,Clear,240,2013-10-08 06:53:00
3:53 AM,79.0,73.9,84,29.88,10.0,SW,3.5,-,0.00,Rain,Light Rain,220,2013-10-08 07:53:00
4:53 AM,78.1,73.0,84,29.87,10.0,Calm,Calm,-,0.00,,Clear,0,2013-10-08 08:53:00
5:53 AM,79.0,73.9,84,29.88,10.0,Calm,Calm,-,N/A,,Clear,0,2013-10-08 09:53:00
6:53 AM,80.1,75.0,85,29.90,10.0,WSW,4.6,-,N/A,,Partly Cloudy,250,2013-10-08 10:53:00
7:53 AM,82.0,75.0,79,29.91,10.0,SW,5.8,-,N/A,,Scattered Clouds,220,2013-10-08 11:53:00
8:53 AM,84.9,75.0,72,29.92,10.0,SW,6.9,-,N/A,,Clear,220,2013-10-08 12:53:00
9:53 AM,84.9,75.9,74,29.94,10.0,SW,4.6,-,N/A,,Clear,230,2013-10-08 13:53:00
10:53 AM,87.1,75.0,67,29.94,10.0,WSW,6.9,-,N/A,,Scattered Clouds,240,2013-10-08 14:53:00
11:29 AM,89.6,75.2,62,29.95,10.0,SW,10.4,-,N/A,,Mostly Cloudy,220,2013-10-08 15:29:00
11:50 AM,89.6,75.2,62,29.94,10.0,SW,8.1,-,N/A,,Scattered Clouds,220,2013-10-08 15:50:00
11:53 AM,90.0,75.9,63,29.94,10.0,SW,8.1,-,N/A,,Scattered Clouds,220,2013-10-08 15:53:00
12:53 PM,90.0,75.0,61,29.93,10.0,SW,8.1,-,N/A,,Partly Cloudy,220,2013-10-08 16:53:00
1:53 PM,86.0,75.9,72,29.92,10.0,West,10.4,16.1,N/A,,Mostly Cloudy,280,2013-10-08 17:53:00
2:38 PM,89.6,75.2,62,29.90,10.0,WSW,8.1,16.1,N/A,,Mostly Cloudy,240,2013-10-08 18:38:00
2:53 PM,89.1,75.9,65,29.90,10.0,SW,10.4,-,N/A,,Mostly Cloudy,220,2013-10-08 18:53:00
3:48 PM,80.6,75.2,84,29.90,1.8,NW,8.1,21.9,0.04,Rain,Rain,320,2013-10-08 19:48:00
3:53 PM,79.0,75.9,90,29.90,1.5,Variable,3.5,-,0.04,Rain,Light Rain,0,2013-10-08 19:53:00
3:57 PM,80.6,78.8,94,29.90,4.0,Variable,4.6,-,0.00,Rain,Light Rain,0,2013-10-08 19:57:00
4:09 PM,84.2,78.8,84,29.90,10.0,NW,4.6,-,0.00,,Mostly Cloudy,320,2013-10-08 20:09:00
4:25 PM,82.4,77.0,84,29.90,10.0,Variable,3.5,-,0.00,,Mostly Cloudy,0,2013-10-08 20:25:00
4:53 PM,82.9,75.9,79,29.90,10.0,NW,8.1,-,0.00,,Scattered Clouds,320,2013-10-08 20:53:00
5:03 PM,82.4,75.2,79,29.90,10.0,NW,5.8,-,N/A,,Mostly Cloudy,320,2013-10-08 21:03:00
5:10 PM,82.4,75.2,79,29.90,10.0,NW,4.6,-,N/A,,Scattered Clouds,320,2013-10-08 21:10:00
5:53 PM,82.9,75.0,77,29.91,10.0,NW,5.8,-,N/A,,Overcast,320,2013-10-08 21:53:00
6:53 PM,82.0,73.9,76,29.91,10.0,NW,5.8,-,0.00,,Mostly Cloudy,310,2013-10-08 22:53:00
7:53 PM,82.0,73.0,74,29.92,10.0,NW,4.6,-,N/A,,Clear,320,2013-10-08 23:53:00
8:53 PM,79.0,73.0,82,29.94,10.0,Variable,3.5,-,N/A,,Partly Cloudy,0,2013-10-09 00:53:00
9:53 PM,82.0,73.0,74,29.95,10.0,NW,3.5,-,N/A,,Partly Cloudy,310,2013-10-09 01:53:00
10:53 PM,80.1,73.0,79,29.96,10.0,Calm,Calm,-,N/A,,Clear,0,2013-10-09 02:53:00
11:53 PM,81.0,73.0,77,29.96,10.0,Variable,3.5,-,N/A,,Clear,0,2013-10-09 03:53:00